x

9439040 - Astoria, Or (asto3) Weather Station

8:54 - Sat 21st Jan 2017 All times are PST. -8 hours from GMT.

  • Wind
    3mph, 8mph gusts
  • Sea Temp 37°f
  • Air Temp 41°f
  • Sea Pressure 992.2mb
  • 9439040 - Astoria, Or
  • 9439040 - Astoria, Or

More Historic Weather Station data

Upgrade to MSW Pro to gain access to the past 30 days of data for over 8000 Wavebouys and Weather Stations around the globe.

Join Pro

Comparision Forecast

View Surf forecast
   
sam. 01/21 8:54 3 8 mph 992.2mb 37f 41f
8:48 6 7 mph 992.2mb 37f 40f
8:42 3 7 mph 992.1mb 37f 40f
8:36 6 8 mph 992mb 37f 40f
8:30 5 8 mph 991.9mb 37f 40f
8:24 3 6 mph 991.9mb 37f 41f
8:18 1 3 mph 991.9mb 37f 40f
8:12  -  6 mph 991.8mb 37f 40f
8:06 1 6 mph 991.7mb 37f 40f
8:00 6 10 mph 991.5mb 37f 41f
7:54 5 11 mph 991.4mb 37f 41f
7:48 6 10 mph 991.3mb 37f 40f
7:42 6 8 mph 991.3mb 37f 40f
7:36 3 7 mph 991.2mb 37f 40f
7:30 2 7 mph 991.1mb 36f 40f
7:24 3 5 mph 991.1mb 36f 40f
7:18 1 5 mph 991.1mb 36f 40f
7:12 2 7 mph 991mb 36f 40f
7:06  -  6 mph 991mb 36f 40f
7:00 1 5 mph 990.9mb 37f 41f
6:54 2 6 mph 990.8mb 37f 40f
6:48 2 3 mph 990.7mb 37f 40f
6:42 1 6 mph 990.6mb 37f 40f
6:36 2 5 mph 990.5mb 37f 40f
6:30  -  3 mph 990.5mb 37f 40f
6:24 1 5 mph 990.4mb 37f 40f
6:18 3 6 mph 990.4mb 37f 40f
6:12 1 5 mph 990.3mb 37f 40f
6:06 2 6 mph 990.3mb 37f 40f
6:00 3 6 mph 990.3mb 37f 40f
5:54 1 5 mph 990.2mb 37f 40f
5:48 1 10 mph 990.1mb 37f 40f
5:42 6 8 mph 990mb 37f 40f
5:36 2 6 mph 990mb 37f 40f
5:30 2 8 mph 989.9mb 37f 41f
5:24 2 5 mph 989.9mb 37f 40f
5:18 3 5 mph 989.9mb 37f 40f
5:06 5 8 mph 989.9mb 37f 40f
5:00 2 8 mph 989.9mb 37f 40f
4:54 2 5 mph 989.9mb 37f 40f
4:48 2 5 mph 989.8mb 37f 40f
4:42 2 6 mph 989.7mb 37f 40f
4:36 5 7 mph 989.6mb 37f 39f
4:30 2 6 mph 989.6mb 37f 40f
4:24 3 7 mph 989.6mb 37f 40f
4:18 2 5 mph 989.6mb 37f 40f
4:12 6 10 mph 989.5mb 37f 41f
4:06 3 5 mph 989.5mb 37f 40f
4:00 3 6 mph 989.4mb 37f 40f
3:54 2 3 mph 989.4mb 37f 40f
3:48 2 5 mph 989.4mb 37f 40f
3:42 2 8 mph 989.5mb 37f 40f
3:36 2 7 mph 989.5mb 37f 41f
3:30 2 5 mph 989.5mb 37f 40f
3:24 2 6 mph 989.5mb 37f 40f
3:18 1 8 mph 989.5mb 37f 40f
3:12 3 8 mph 989.5mb 37f 40f
3:06 5 9 mph 989.5mb 37f 41f
3:00 6 9 mph 989.4mb 37f 40f
2:54 7 10 mph 989.3mb 37f 41f
2:48 6 9 mph 989.3mb 37f 41f
2:42 6 8 mph 989.3mb 37f 41f
2:36 3 8 mph 989.2mb 37f 41f
2:30 2 7 mph 989.1mb 37f 40f
2:24 1 7 mph 989.1mb 37f 40f
2:18 3 9 mph 989mb 37f 40f
2:12 5 6 mph 988.9mb 37f 40f
2:06 3 9 mph 988.9mb 37f 40f
2:00 3 7 mph 988.9mb 37f 41f
1:54 1 6 mph 988.8mb 37f 41f
1:48 3 6 mph 988.7mb 37f 41f
1:42 2 7 mph 988.6mb 37f 41f
1:36 5 7 mph 988.5mb 37f 41f
1:30 2 6 mph 988.5mb 37f 40f
1:24 2 7 mph 988.5mb 37f 40f
1:18 3 6 mph 988.4mb 37f 40f
1:12 3 8 mph 988.4mb 37f 40f
1:06 3 6 mph 988.3mb 37f 41f
1:00 7 10 mph 988.3mb 37f 40f
12:54 6 8 mph 988.2mb 37f 41f
12:48 2 6 mph 988.2mb 37f 40f
12:42 2 6 mph 988.2mb 37f 40f
12:36 3 9 mph 988.2mb 37f 40f
12:30 6 11 mph 988.1mb 37f 40f
12:24 7 10 mph 988mb 37f 40f
12:18 2 5 mph 987.9mb 37f 39f
12:12  -  6 mph 987.9mb 37f 39f
12:06 3 6 mph 987.9mb 37f 40f
12:00  -  2 mph 987.9mb 37f 40f
ven. 01/20 11:54  -  3 mph 987.9mb 37f 40f
11:48 1 6 mph 987.8mb 37f 40f
11:42 2 6 mph 987.8mb 37f 39f
11:36 3 6 mph 987.8mb 37f 39f
11:30 3 8 mph 987.7mb 37f 40f
11:24 6 11 mph 987.7mb 37f 40f
11:18 3 7 mph 987.6mb 37f 40f
11:12 3 6 mph 987.6mb 37f 40f
11:06  -  6 mph 987.5mb 37f 40f
11:00 3 6 mph 987.5mb 37f 40f
10:54 2 3 mph 987.5mb 37f 40f
10:48 2 7 mph 987.5mb 37f 40f
10:42 2 7 mph 987.5mb 37f 40f
10:36 3 8 mph 987.4mb 37f 41f
10:30 3 11 mph 987.3mb 37f 41f
10:24 6 9 mph 987.2mb 37f 41f
10:18 3 9 mph 987.3mb 37f 41f
10:12 3 10 mph 987.2mb 37f 41f
10:06 3 10 mph 987.2mb 37f 40f
10:00 1 7 mph 987.1mb 37f 40f
9:54 2 10 mph 987.1mb 37f 40f
9:48 3 8 mph 987.1mb 37f -
9:42 6 11 mph 987mb 37f -
9:36 7 10 mph 987mb 37f -
9:30 7 10 mph 986.9mb 37f 41f
9:24 1 3 mph 987mb 37f 40f
9:18 2 7 mph 987mb 37f 41f
9:12 5 8 mph 986.9mb 37f 41f
9:06 5 9 mph 986.9mb 37f 40f
9:00 2 9 mph 986.8mb 36f 41f
8:54 3 8 mph 986.8mb 36f 41f
8:48 3 7 mph 986.7mb 36f 41f
8:42 2 3 mph 986.7mb 36f 41f
8:36 3 5 mph 986.6mb 36f 42f
8:30 5 6 mph 986.6mb 36f 41f
8:24 5 7 mph 986.5mb 36f 41f
8:18 3 7 mph 986.5mb 36f 41f
8:12 2 6 mph 986.3mb 36f 42f
8:06 3 7 mph 986.3mb 36f 42f
8:00 3 5 mph 986.3mb 36f 41f
7:54 1 2 mph 986.2mb 36f 40f
7:48 2 3 mph 986.2mb 36f 40f
7:42 2 3 mph 986.2mb 36f 40f
7:36 2 3 mph 986.1mb 36f 41f
7:30 2 7 mph 986.1mb 36f 41f
7:24 2 6 mph 986mb 36f 42f
7:18 3 8 mph 986mb 36f 41f
7:12 3 7 mph 985.9mb 37f 41f
7:06 2 5 mph 985.9mb 37f 41f
7:00 2 3 mph 985.8mb 37f 42f
6:54 3 6 mph 985.8mb 37f 41f
6:48 2 6 mph 985.7mb 37f 41f
6:42 3 6 mph 985.7mb 37f 41f
6:36 1 3 mph 985.6mb 37f 41f
6:30  -  2 mph 985.6mb 37f 41f
6:24 1 6 mph 985.6mb 37f 42f
6:18 3 5 mph 985.6mb 37f 42f
6:12 3 7 mph 985.5mb 37f 42f
6:06 3 5 mph 985.4mb 37f 42f
6:00 2 3 mph 985.4mb 37f 42f
5:54 3 8 mph 985.3mb 37f 42f
5:48 2 7 mph 985.1mb 37f 42f
5:42 7 10 mph 985mb 37f 42f
5:36 3 7 mph 985mb 37f 42f
5:30 5 7 mph 984.8mb 37f 42f
5:24 3 10 mph 984.8mb 37f 42f
5:18 5 7 mph 984.7mb 37f 43f
5:12  -  6 mph 984.7mb 37f 42f
5:06 3 8 mph 984.8mb 37f 42f
5:00 8 9 mph 984.7mb 38f 42f
4:54 6 9 mph 984.7mb 38f 42f
4:48 6 10 mph - 38f 42f
4:42 6 10 mph - 37f 42f
4:36 7 10 mph - 37f 42f
4:30 5 10 mph 984.5mb 37f 42f
4:24 6 8 mph 984.5mb 37f 42f
4:18 2 10 mph 984.5mb 37f 42f
4:12 5 9 mph 984.5mb 37f 43f
4:06 6 10 mph 984.4mb 37f 43f
4:00 6 11 mph 984.4mb 37f 43f
3:54 6 10 mph 984.4mb 37f 43f
3:48 6 8 mph 984.4mb 37f 43f
3:42 6 10 mph 984.4mb 37f 43f
3:36 6 11 mph 984.3mb 37f 44f
3:30 5 10 mph 984.3mb 37f 44f
3:24 2 6 mph 984.3mb 37f 44f
3:18  -  9 mph 984.3mb 37f 43f
3:12 5 8 mph 984.3mb 37f 43f
3:06 2 9 mph 984.2mb 37f 43f
3:00 3 7 mph 984.1mb 37f 43f
2:54 5 8 mph 984mb 37f 44f
2:48 6 10 mph 984mb 37f 44f
2:42 6 9 mph 984mb 37f 44f
2:36 2 8 mph 983.9mb 37f 44f
2:30 2 9 mph 983.9mb 37f 44f
2:24 1 6 mph 983.8mb 37f 44f
2:18 5 9 mph 983.8mb 37f 44f
2:12 5 8 mph 983.7mb 37f 44f
2:06 3 7 mph 983.6mb 37f 43f
2:00 5 10 mph 983.6mb 37f 44f
1:54 3 7 mph 983.6mb 37f 43f
1:48 2 9 mph 983.6mb 37f 44f
1:42 5 9 mph 983.5mb 37f 44f
1:36 7 10 mph 983.5mb 37f 44f
1:30 6 10 mph 983.4mb 37f 44f
1:24 5 10 mph 983.4mb 37f 43f
1:18 5 11 mph 983.4mb 37f 44f
1:12 7 10 mph 983.4mb 37f 44f
1:06 3 6 mph 983.4mb 37f 44f
1:00 1 7 mph 983.5mb 37f 43f
12:54 5 9 mph 983.6mb 37f 43f
12:48 6 9 mph 983.6mb 37f 43f
12:42 5 8 mph 983.7mb 37f 42f
12:36 7 9 mph 983.7mb 37f 43f
12:30 7 9 mph 983.7mb 37f 43f
12:24 8 9 mph 983.7mb 37f 42f
12:18 6 9 mph 983.8mb 37f 42f
12:12 3 6 mph 983.8mb 37f 43f
12:06 5 7 mph 983.8mb 37f 43f
12:00 5 8 mph 983.9mb 37f 42f
11:54 6 9 mph 983.9mb 37f 43f
11:48 2 6 mph 983.9mb 37f 42f
11:42 5 6 mph 983.9mb 37f 43f
11:36 5 7 mph 983.8mb 37f 42f
11:30 3 7 mph 983.9mb 37f 42f
11:24 2 7 mph 984mb 37f 42f
11:18 6 8 mph 984mb 37f 42f
11:12 5 7 mph 984mb 37f 42f
11:06 6 8 mph 984mb 37f 41f
11:00 5 6 mph 984mb 37f 41f
10:54 5 8 mph 984.1mb 37f 41f
10:48 5 7 mph 984.1mb 37f 41f
10:42 5 7 mph 984.1mb 37f 41f
10:36 6 8 mph 984.1mb 37f 41f
10:30 6 15 mph 984mb 37f 41f
10:24 5 6 mph 984.1mb 37f 41f
10:18 3 8 mph 984.1mb 37f 41f
10:12 3 6 mph 984mb 37f 41f
10:06 7 9 mph 984.1mb 37f 41f
10:00 7 9 mph 984.2mb 37f 41f
9:54 5 11 mph 984.2mb 37f 42f
9:48 8 14 mph 984.2mb 37f 42f
9:42 7 10 mph 984.2mb 38f 42f
9:36 6 11 mph 984.1mb 37f 42f
9:30 5 8 mph 984mb 37f 41f
9:24 6 8 mph 984.1mb 37f 41f
9:18 6 10 mph 984.1mb 37f 41f
9:12 3 9 mph 984mb 37f 41f
9:06 6 10 mph 984mb 37f 41f
9:00 5 9 mph 983.9mb 37f 41f
8:54 3 7 mph 983.8mb 37f 41f
8:48 6 13 mph 983.8mb 37f 41f
8:42 10 13 mph 983.7mb 37f 42f
8:36 5 8 mph 983.7mb 37f 42f
8:30 2 8 mph 983.9mb 37f 42f
8:24 2 7 mph 983.9mb 37f 42f
8:18 6 9 mph 984mb 37f 42f
8:12 3 13 mph 984mb 37f 43f
8:06 5 13 mph 984mb 37f 43f
8:00 3 11 mph 984.1mb 37f 43f
7:54 6 14 mph 984.2mb 37f 43f
7:48 2 7 mph 984.2mb 37f 42f
7:42 3 9 mph 984.2mb 37f 43f
7:36 3 11 mph 984.2mb 37f 42f
7:30 8 13 mph 984.2mb 37f 42f
7:24 6 14 mph 984.2mb 37f 44f
7:18 10 17 mph 984.2mb 37f 42f
7:12 6 14 mph 984.3mb 37f 42f
7:06 11 16 mph 984.4mb 37f 42f
7:00 11 16 mph 984.5mb 37f 41f
6:54 9 17 mph 984.5mb 37f 41f
6:48 6 15 mph 984.5mb 37f 41f
6:42 9 17 mph 984.5mb 37f 41f
6:36 10 16 mph 984.6mb 37f 41f
6:30 14 20 mph 984.5mb 37f 41f
6:24 10 15 mph 984.6mb 37f 42f
6:18 9 16 mph 984.6mb 37f 42f
6:12 7 10 mph 984.7mb 37f 41f
6:06 6 11 mph 984.7mb 37f 41f
6:00 7 11 mph 984.9mb 37f 41f
5:54 7 10 mph 985.1mb 37f 41f
5:48 7 13 mph 985.3mb 37f 41f
5:42 7 11 mph 985.3mb 37f 41f
5:36 6 11 mph 985.4mb 37f 41f
5:30 8 13 mph 985.5mb 37f 41f
5:24 6 10 mph 985.7mb 37f 42f
5:18 6 11 mph 985.9mb 37f 42f
5:12 7 11 mph 986.1mb 37f 42f
5:06 5 8 mph 986.2mb 37f 42f
5:00 6 9 mph 986.5mb 37f 41f
4:54 6 10 mph 986.5mb 37f 42f
4:48 8 10 mph 986.7mb 37f 42f
4:42 6 8 mph 986.8mb 37f 41f
4:36 6 9 mph 986.9mb 37f 41f
4:30 7 8 mph 987mb 37f 41f
4:24 6 9 mph 987.1mb 37f 41f
4:18 6 8 mph 987.2mb 37f 41f
4:12 5 8 mph 987.4mb 37f 41f
4:06 6 8 mph 987.5mb 37f 41f
4:00 5 8 mph 987.7mb 37f 41f
3:54 6 9 mph 987.9mb 37f 42f
3:48 6 9 mph 988mb 37f 41f
3:42 6 9 mph 988.2mb 37f 42f
3:36 6 9 mph 988.4mb 37f 42f
3:30 6 8 mph 988.6mb 37f 42f
3:24 6 10 mph 988.8mb 37f 41f
3:18 5 10 mph 989mb 37f 42f
3:12 6 9 mph 989.2mb 37f 42f
3:06 2 7 mph 989.4mb 37f 41f
3:00 2 5 mph 989.6mb 37f 41f
2:54 1 6 mph 989.8mb 37f 40f
2:48 3 6 mph 989.9mb 37f 40f
2:42 2 3 mph 990.1mb 37f 40f
2:36 1 5 mph 990.2mb 37f 40f
2:30 5 7 mph 990.3mb 37f 40f
2:24 5 8 mph 990.4mb 37f 40f
2:18 2 6 mph 990.5mb 37f 40f
2:12 5 7 mph 990.6mb 37f 40f
2:06 2 7 mph 990.6mb 37f 40f
2:00 2 7 mph 990.7mb 37f 41f
1:54 2 6 mph 990.8mb 37f 40f
1:48 3 6 mph 991.1mb 37f 41f
1:42 5 10 mph 991.2mb 37f 41f
1:36 3 8 mph 991.4mb 37f 42f
1:30 2 5 mph 991.6mb 37f 41f
1:24 3 9 mph 991.7mb 37f 41f
1:18 1 6 mph 991.9mb 37f 41f
1:12 5 7 mph 992mb 37f 42f
1:06 5 7 mph 992.1mb 37f 42f
1:00 2 5 mph 992.2mb 37f 42f
12:54 2 9 mph 992.3mb 37f 42f
12:48 6 9 mph 992.4mb 37f 42f
12:42 6 9 mph 992.5mb 37f 42f
12:36 5 6 mph 992.7mb 37f 41f
12:30 1 5 mph 992.8mb 37f 41f
12:24 2 6 mph 993mb 37f 41f
12:18 3 7 mph 993.1mb 37f 42f
12:12 5 9 mph 993.2mb 37f 42f
12:06 5 9 mph 993.3mb 37f 41f
12:00 3 9 mph 993.5mb 37f 42f
jeu. 01/19 11:54 5 7 mph 993.7mb 37f 40f
11:48 3 5 mph 993.9mb 37f 40f
11:42 1 6 mph 994.1mb 37f 41f
11:36 2 5 mph 994.2mb 37f 41f
11:30 3 6 mph 994.4mb 37f 41f
11:24 2 7 mph 994.5mb 37f 41f
11:18 3 8 mph 994.6mb 37f 41f
11:12 2 7 mph 994.8mb 37f 42f
11:06 1 7 mph 994.9mb 37f 41f
11:00 2 7 mph 995mb 37f 42f
10:54 2 6 mph 995mb 37f 42f
10:48  -  3 mph 995.2mb 37f 42f
10:42 2 3 mph 995.2mb 37f 42f
10:36 1 3 mph 995.3mb 37f 42f
10:30 2 5 mph 995.3mb 37f 42f
10:24 2 5 mph 995.5mb 37f 41f
10:18 2 7 mph 995.6mb 37f 42f
10:12 1 3 mph 995.8mb 37f 43f
10:06 3 8 mph 995.8mb 36f 43f
10:00 2 5 mph 996mb 36f 42f
9:54 2 5 mph 996.1mb 36f 42f
9:48 5 6 mph 996.3mb 36f -
9:42 2 3 mph 996.4mb 36f -
9:36  -  2 mph 996.5mb 36f -
9:30 1 3 mph 996.5mb 36f 42f
9:24 2 3 mph 996.6mb 37f 42f
9:18 2 3 mph 996.8mb 37f 42f
9:12 2 3 mph 996.9mb 37f 43f
9:06 2 3 mph 997mb 37f 43f
9:00  -  7 mph 997.1mb 37f 43f
8:54 5 7 mph 997.2mb 37f 43f
8:48  -  1 mph 997.2mb 37f 43f
8:42  -  2 mph 997.3mb 37f 44f
8:36 2 10 mph 997.3mb 37f 44f
8:30 5 8 mph 997.4mb 37f 43f
8:24 2 5 mph 997.4mb 37f 43f
8:18 2 5 mph 997.5mb 37f 43f
8:12 2 3 mph 997.6mb 37f 44f
8:06  -  2 mph 997.6mb 37f 44f
8:00 1 5 mph 997.7mb 37f 44f
7:54  -  5 mph 997.8mb 37f 44f
7:48 1 2 mph 997.8mb 37f 44f
7:42 2 7 mph 997.9mb 37f 45f
7:36 2 5 mph 998mb 36f 44f
7:30 2 5 mph 998.1mb 36f 44f
7:24 5 8 mph 998.1mb 36f 45f
7:18 3 5 mph 998.2mb 36f 45f
7:12 3 6 mph 998.2mb 36f 46f
7:06 5 6 mph 998.3mb 36f 46f
7:00 3 7 mph 998.4mb 36f 46f
6:54 6 9 mph 998.5mb 36f 46f
6:48 5 7 mph 998.5mb 36f 45f
6:42 6 7 mph 998.4mb 36f 46f
6:36 6 9 mph 998.5mb 36f 46f
6:30 6 8 mph 998.6mb 37f 45f
6:24 5 6 mph 998.6mb 37f 44f
6:18 2 5 mph 998.7mb 37f 45f
6:12 5
mph
998.7mb 37f 46f
6:06 2 7 mph 998.8mb 37f 46f
6:00 6 7 mph 998.9mb 37f 46f
5:54 5 6 mph 999mb 37f 46f
5:48 5 7 mph 999mb 37f 46f
5:42 6 8 mph 999mb 37f 46f
5:36 5 8 mph 999mb 37f 46f
5:30 5 7 mph 999mb 37f 46f
5:24 6 7 mph 999.1mb 37f 46f
5:18 6 9 mph 999.2mb 37f 46f
5:12 5 7 mph 999.2mb 37f 46f
5:06 6 8 mph 999.3mb 37f 46f
5:00 7 9 mph 999.2mb 37f 46f
4:54 6 8 mph 999.2mb 37f 47f
4:48 9 15 mph 999.2mb 37f 47f
4:42 11 18 mph 999.2mb 37f 47f
4:36 15 21 mph 999.2mb 37f 48f
4:30 5 9 mph 999.3mb 38f 47f
4:24 9 15 mph 999.3mb 38f 47f
4:18 10 24 mph 999.3mb 38f 48f
4:12 10 18 mph 999.2mb 38f 49f
4:06 9 17 mph 999.3mb 38f 49f
4:00 11 14 mph 999.2mb 38f 49f
3:54 7 14 mph 999.1mb 38f 49f
3:48 7 14 mph 999.1mb 38f 49f
3:42 9 24 mph 999.1mb 38f 49f
3:36 10 21 mph 999.1mb 38f 49f
3:30 11 17 mph 999.1mb 38f 49f
3:24 8 22 mph 999.2mb 38f 49f
3:18 11 15 mph 999.2mb 38f 50f
3:12 8 16 mph 999.1mb 38f 49f
3:06 11 20 mph 999.2mb 38f 49f
3:00 10 17 mph 999.2mb 38f 49f
2:54 9 21 mph 999.2mb 38f 49f
2:48 14 20 mph 999.2mb 38f 49f
2:42 13 21 mph 999.2mb 38f 49f
2:36 8 10 mph 999.2mb 38f 49f
2:30 10 14 mph 999.2mb 38f 49f
2:24 9 10 mph 999.2mb 38f 48f
2:18 5 9 mph 999.2mb 38f 47f
2:12 9 13 mph 999.3mb 38f 47f
2:06 14 21 mph 999.4mb 38f 47f
2:00 9 20 mph 999.4mb 38f 47f
1:54 9 16 mph 999.5mb 38f 47f
1:48 10 17 mph 999.5mb 38f 47f
1:42 10 14 mph 999.6mb 38f 47f
1:36 9 17 mph 999.6mb 38f 47f
1:30 10 20 mph 999.6mb 38f 47f
1:24 6 9 mph 999.7mb 38f 47f
1:18 9 11 mph 999.6mb 38f 48f
1:12 7 15 mph 999.6mb 38f 47f
1:06 7 11 mph 999.7mb 38f 47f
1:00 7 13 mph 999.8mb 38f 47f
12:54 9 14 mph 999.8mb 38f 47f
12:48 7 15 mph 999.9mb 38f 47f
12:42 9 11 mph 999.9mb 38f 47f
12:36 8 16 mph 999.9mb 38f 48f
12:30 10 14 mph 1000mb 38f 48f
12:24 9 15 mph 1000mb 38f 47f
12:18 8 16 mph 1000mb 38f 47f
12:12 10 18 mph 1000mb 38f 47f
12:06 14 18 mph 1000.1mb 38f 47f
12:00 10 14 mph 1000.1mb 37f 47f
11:54 13 17 mph 1000.2mb 37f 47f
11:48 9 16 mph 1000.1mb 37f 47f
11:42 14 21 mph 1000.2mb 37f 47f
11:36 14 20 mph 1000.3mb 38f 47f
11:30 14 20 mph 1000.2mb 38f 47f
11:24 10 15 mph 1000.3mb 38f 48f
11:18 10 20 mph 1000.3mb 38f 48f
11:12 11 17 mph 1000.3mb 37f 48f
11:06 11 17 mph 1000.3mb 37f 47f
11:00 11 16 mph 1000.3mb 37f 48f
10:54 11 15 mph 1000.3mb 37f 47f
10:48 8 16 mph 1000.3mb 37f 47f
10:42 9 16 mph 1000.3mb 37f 48f
10:36 16 20 mph 1000.3mb 37f 48f
10:30 13 21 mph 1000.3mb 37f 48f
10:24 13 17 mph 1000.2mb 37f 48f
10:18 10 14 mph - 37f 48f
10:12 10 15 mph - 37f 48f
10:06 13 23 mph - 37f 48f
10:00 14 18 mph 1000mb 37f 48f
9:54 10 16 mph 1000.1mb 37f 48f
9:48 11 15 mph 1000mb 37f 48f
9:42 9 16 mph 1000.1mb 37f 48f
9:36 9 17 mph 1000.1mb 38f 47f
9:30 10 18 mph 1000.1mb 38f 47f
9:24 8 13 mph 999.9mb 37f 47f
9:18 7 9 mph 999.8mb 37f 47f
9:12 8 13 mph 999.8mb 37f 47f
9:06 8 11 mph 999.8mb 37f 47f
9:00 6 10 mph 999.8mb 37f 47f
8:54 6 15 mph 999.7mb 37f 47f
8:48 11 16 mph 999.7mb 37f 47f
8:42 8 11 mph 999.6mb 37f 47f
8:36 10 14 mph 999.6mb 37f 47f
8:30 8 16 mph 999.6mb 37f 46f
8:24 13 18 mph 999.5mb 37f 46f
8:18 9 20 mph 999.5mb 37f 47f
8:12 15 18 mph 999.4mb 38f 47f
8:06 7 13 mph 999.2mb 38f 46f
8:00 6 10 mph 999.1mb 38f 47f
7:54 10 13 mph 998.9mb 38f 48f
7:48 8 14 mph 998.8mb 38f 48f
7:42 8 14 mph 998.8mb 38f 48f
7:36 7 10 mph 998.8mb 37f 47f
7:30 8 10 mph 998.9mb 37f 47f
7:24 6 9 mph 998.7mb 37f 46f
7:18 8 13 mph 998.7mb 37f 47f
7:12 7 11 mph 998.6mb 37f 47f
7:06 7 10 mph 998.6mb 37f 48f
7:00 7 8 mph 998.6mb 37f 48f
6:54 8 14 mph 998.6mb 37f 48f
6:48 9 16 mph 998.6mb 37f 48f
6:42 8 15 mph 998.6mb 37f 48f
6:36 8 14 mph 998.5mb 37f 48f
6:30 10 18 mph 998.4mb 37f 48f
6:24 8 14 mph 998.5mb 37f 48f
6:18 11 16 mph 998.5mb 37f 48f
6:12 10 17 mph 998.5mb 37f 47f
6:06 10 16 mph 998.4mb 37f 48f
6:00 13 18 mph 998.4mb 37f 48f
5:54 8 15 mph 998.3mb 37f 47f
5:48 6 17 mph 998.2mb 37f 48f
5:42 9 15 mph 998.2mb 37f 48f
5:36 8 17 mph 998.2mb 37f 48f
5:30 13 16 mph 998mb 37f 48f
5:24 8 13 mph 997.9mb 37f 47f
5:18 6 10 mph 997.9mb 36f 47f
5:12 6 8 mph 997.8mb 37f 46f
5:06 7 8 mph 997.9mb 36f 46f
5:00 6 7 mph 998mb 36f 46f
4:54 6 8 mph 997.9mb 36f 46f
4:48 7 8 mph 997.8mb 36f 46f
4:42 6 7 mph 997.9mb 36f 46f
4:36 6 9 mph 997.8mb 37f 47f
4:30 5 6 mph 997.8mb 36f 47f
4:24 3 6 mph 997.8mb 37f 47f
4:18 7 14 mph 997.8mb 37f 47f
4:12 9 14 mph 997.9mb 37f 47f
4:06 6 9 mph 997.9mb 37f 47f
4:00 5 8 mph 997.9mb 37f 46f
3:54 3 8 mph 997.8mb 37f 46f
3:48 5 7 mph 997.7mb 37f 47f
3:42 5 8 mph 997.7mb 37f 47f
3:36 5 7 mph 997.7mb 37f 46f
3:30 6 7 mph 997.7mb 37f 46f
3:24 6 8 mph 997.6mb 37f 46f
3:18 6 8 mph 997.6mb 37f 45f
3:12 6 10 mph 997.6mb 37f 46f
3:06 7 9 mph 997.5mb 37f 47f
3:00 8 13 mph 997.4mb 37f 47f
2:54 3 5 mph 997.4mb 37f 47f
2:48 5 6 mph 997.4mb 37f 48f
2:42 7 9 mph 997.4mb 37f 48f
2:36 9 14 mph 997.5mb 37f 48f
2:30 7 10 mph 997.3mb 37f 48f
2:24 7 14 mph 997.3mb 37f 48f
2:18 9 13 mph 997.2mb 38f 49f
2:12 7 14 mph 997.2mb 38f 49f
2:06 9 14 mph 997.1mb 38f 49f
2:00 9 13 mph 997mb 38f 49f
1:54 8 11 mph 997mb 38f 48f
1:48 6 10 mph 997mb 38f 48f
1:42 9 13 mph 996.9mb 38f 48f
1:36 3 9 mph 996.8mb 38f 47f
1:30 6 11 mph 996.7mb 38f 47f
1:24 9 18 mph 996.6mb 38f 48f
1:18 11 16 mph 996.5mb 37f 48f
1:12 10 17 mph 996.5mb 38f 49f
1:06 7 13 mph 996.3mb 38f 49f
1:00 5 10 mph 996.1mb 38f 49f
12:54 7 15 mph 996.1mb 37f 49f
12:48 5 10 mph 996.1mb 37f 49f
12:42 6 14 mph 996mb 37f 49f
12:36 9 15 mph 996mb 37f 49f
12:30 8 14 mph 996mb 37f 49f
12:24 8 17 mph 995.8mb 37f 49f
12:18 10 14 mph 995.8mb 37f 49f
12:12 11 17 mph 995.8mb 37f 50f
12:06 10 14 mph 995.7mb 37f 49f
12:00 8 13 mph 995.5mb 37f 49f
mer. 01/18 11:54 7 11 mph 995.5mb 37f 49f
11:48 6 10 mph 995.4mb 37f 49f
11:42 5 9 mph 995.5mb 37f 49f
11:36 7 10 mph 995.4mb 37f 49f
11:30 5 11 mph 995.4mb 37f 48f
11:24 6 8 mph 995.3mb 37f 48f
11:18 5 9 mph 995.2mb 37f 47f
11:12 7 16 mph 995.2mb 37f 48f
11:06 6 8 mph 995.1mb 37f 47f
11:00 6 7 mph 994.9mb 37f 48f
10:54 6 9 mph 994.8mb 37f 49f
10:48 7 11 mph 994.6mb 37f 49f
10:42 8 16 mph 994.5mb 37f 49f
10:36 5 8 mph 994.5mb 37f 47f
10:30 6 17 mph 994.4mb 37f 47f
10:24 6 13 mph 994.3mb 37f 48f
10:18 8 10 mph 994.2mb 37f 48f
10:12 6 10 mph 994mb 37f 48f
10:06 8 11 mph 993.9mb 37f 48f
10:00 6 13 mph 993.9mb 37f 47f
9:54 8 10 mph 993.9mb 37f 47f
9:48 8 10 mph 993.8mb - -
9:42 7 10 mph 993.7mb - -
9:36 7 9 mph 993.6mb - -
9:30 6 8 mph 993.4mb 37f 46f
9:24 6 10 mph 993.2mb 37f 47f
9:18 7 10 mph 993.1mb 37f 47f
9:12 6 7 mph 993mb 37f 47f
9:06 5 8 mph 993mb 37f 47f
9:00 3 8 mph 992.9mb 37f 47f
8:54 6 10 mph 992.8mb 37f 47f
8:48 8 15 mph 992.7mb 37f 47f
8:42 8 13 mph 992.7mb 37f 47f
8:36 9 11 mph 992.7mb 37f 47f
8:30 8 11 mph 992.5mb 37f 47f
8:24 8 11 mph 992.4mb 37f 47f
8:18 9 13 mph 992.4mb 37f 47f
8:12 11 15 mph 992.4mb 37f 47f
8:06 13 16 mph 992.4mb 37f 47f
8:00 13 20 mph 992.4mb 37f 47f
7:54 11 17 mph 992.3mb 37f 47f
7:48 14 16 mph 992.2mb 38f 47f
7:42 14 20 mph 992.1mb 38f 47f
7:36 14 21 mph 991.9mb 38f 48f
7:30 9 14 mph 991.5mb 38f 47f
7:24 6 10 mph 991.1mb 37f 47f
7:18 7 10 mph 990.9mb 37f 47f
7:12 6 9 mph 990.7mb 37f 47f
7:06 7 8 mph 990.6mb 37f 47f
7:00 5 6 mph 990.3mb 37f 47f
6:54 3 6 mph 990.2mb 37f 47f
6:48 2 3 mph 990.3mb 37f 47f
6:42 1
mph
990.1mb 37f 46f
6:36  -  3 mph 989.9mb 37f 46f
6:30 3 6 mph 989.9mb 37f 45f
6:24 2 9 mph 989.9mb 36f 43f
6:18 8 13 mph 989.9mb 36f 44f
6:12 10 14 mph 990mb 36f 48f
6:06 11 22 mph 989.7mb 36f 48f
6:00 8 15 mph 989.3mb 36f 46f
5:54 5 8 mph 988.9mb 36f 47f
5:48 1 5 mph 989.2mb 37f 47f
5:42  -  2 mph 989.2mb 37f 46f
5:36  -  3 mph 989.3mb 37f 46f
5:30  -  2 mph 989.3mb 37f 47f
5:24 1 6 mph 989.3mb 37f 47f
5:18 3 7 mph 989.4mb 37f 47f
5:12 3 6 mph 989.4mb 37f 47f
5:06 3 5 mph 989.6mb 37f 47f
5:00 2 6 mph 989.5mb 37f 48f
4:54 5 7 mph 989.4mb 37f 48f
4:48 3 6 mph 989.4mb 37f 48f
4:42 5 6 mph 989.3mb 37f 48f
4:36 2 3 mph 989.5mb 37f 48f
4:30 1 3 mph 989.6mb 37f 47f
4:24 1 2 mph 989.7mb 37f 47f
4:18 2 3 mph 989.9mb 37f 47f
4:12 3 13 mph 990.3mb 37f 47f
4:06 7 10 mph 990.4mb 37f 47f
4:00 3 7 mph 990.3mb 37f 49f
3:54 3 7 mph 990.3mb 37f 47f
3:48 2 8 mph 990.5mb 37f 48f
3:42 7 10 mph 990.4mb 37f 50f
3:36 1 6 mph 990.6mb 37f 49f
3:30 1 6 mph 990.7mb 37f 50f
3:24 3 6 mph 990.8mb 37f 49f
3:18 2 5 mph 990.9mb 37f 51f
3:12 3 11 mph 991mb 37f 52f
3:06 9 14 mph 991.1mb 37f 52f
3:00 10 18 mph 991.4mb 37f 53f
2:54 10 22 mph 991.5mb 37f 53f
2:48 8 17 mph 991.5mb 37f 53f
2:42 7 15 mph 991.5mb 37f 53f
2:36 5 8 mph 991.6mb 37f 50f
2:30 2 5 mph 991.6mb 37f 52f
2:24 2 5 mph 991.7mb 37f 52f
2:18 3 5 mph 991.6mb 37f 53f
2:12 3 6 mph 991.8mb 37f 53f
2:06 3 8 mph 991.8mb 37f 53f
2:00 6 9 mph 991.9mb 37f 53f
1:54 5 10 mph 991.9mb 37f 53f
1:48 5 6 mph 992.1mb 37f 50f
1:42 2 3 mph 992.3mb 37f 53f
1:36 1 2 mph 992.3mb 37f 54f
1:30  -  6 mph 992.5mb 37f 54f
1:24 5 7 mph 992.7mb 37f 54f
1:18 5 7 mph 992.5mb 38f 54f
1:12 6 10 mph 992.5mb 38f 54f
1:06 5 9 mph 992.5mb 38f 54f
1:00 3 7 mph 992.6mb 38f 53f
12:54 5 6 mph 992.7mb 38f 53f
12:48 2 3 mph 992.7mb 38f 53f
12:42 2 3 mph 992.7mb 38f 53f
12:36 5 7 mph 992.7mb 38f 53f
12:30 6 10 mph 992.7mb 38f 53f
12:24 3 5 mph 993mb 38f 53f
12:18  -  2 mph 993.1mb 38f 53f
12:12 1 6 mph 993.2mb 38f 53f
12:06 1 6 mph 993.1mb 38f 53f
12:00 5 8 mph 993.2mb 38f 53f
11:54 8 21 mph 993.3mb 38f 54f
11:48 15 21 mph 993.4mb 38f 54f
11:42 14 20 mph 993.3mb 38f 55f
11:36 10 22 mph 993.4mb 38f 55f
11:30 18 26 mph 993.5mb 38f 55f
11:24 9 17 mph 993.3mb 38f 55f
11:18 14 24 mph 993.3mb 38f 55f
11:06 13 21 mph 993.7mb 38f 55f
11:00 13 20 mph 993.9mb 38f 55f
10:54 14 29 mph 993.9mb 38f 55f
10:48 11 21 mph 994.1mb 38f 55f
10:42 14 22 mph 993.9mb 38f 55f
10:36 15 25 mph 993.9mb 38f 55f
10:30 9 24 mph 993.8mb 38f 54f
10:24 15 24 mph 993.8mb 38f 54f
10:18 11 24 mph 993.8mb 38f 54f
10:12 11 18 mph 994mb 38f 55f
10:06 16 26 mph 993.9mb 38f 55f
10:00 15 25 mph 993.9mb 38f 55f
9:54 18 26 mph 993.8mb 38f 55f
9:48 18 30 mph 993.7mb 38f 55f
9:42 15 22 mph 993.7mb 38f 54f
9:36 18 25 mph 993.7mb 38f 55f
9:30 11 23 mph 994mb 38f 54f
9:24 21 32 mph 993.8mb 38f 54f
9:18 21 33 mph 993.9mb 38f 54f
9:12 14 23 mph 993.8mb 38f 54f
9:06 17 33 mph 993.9mb 38f 54f
9:00 16 33 mph 993.8mb 38f 54f
8:54 18 31 mph 993.6mb 38f 53f
8:48 14 28 mph 993.6mb 38f 53f
8:42 15 29 mph 993.6mb 38f 54f
8:36 11 26 mph 993.5mb 38f 53f
8:30 14 33 mph 993.4mb 38f 54f
8:24 15 31 mph 993.5mb 38f 54f
8:18 15 25 mph 993.3mb 38f 54f
8:12 21 29 mph 993.4mb 38f 54f
8:06 15 32 mph 993.4mb 38f 54f
8:00 22 30 mph 993.4mb 38f 54f
7:54 17 38 mph 993.3mb 38f 53f
7:48 25 39 mph 993.5mb 38f 54f
7:42 25 37 mph 993.4mb 38f 54f
7:36 24 40 mph 993.1mb 38f 53f
7:30 21 33 mph 993mb 38f 54f
7:24 28 43 mph 993mb 38f 54f
7:18 22 39 mph 992.9mb 38f 54f
7:12 30 45 mph 992.6mb 37f 54f
7:06 18 34 mph 992.5mb 38f 55f
7:00 26 45 mph 992.5mb 37f 55f
6:54 30 53 mph 992.4mb 37f 55f
6:48 28 37 mph 992.3mb 37f 55f
6:42 29 41 mph 992.4mb 37f 55f
6:36 26 46 mph 992.3mb 37f 56f
6:30 20 48 mph 992.4mb 37f 55f
6:24 22 32 mph 992.5mb 37f 55f
6:18 14 26 mph 992.5mb 37f 55f
6:12 13 28 mph 992.3mb 37f 55f
6:06 13 24 mph 992.3mb 37f 55f
6:00 11 20 mph 992.4mb 37f 54f
5:54 9 15 mph 992.2mb 37f 54f
5:48 10 15 mph 992.4mb 37f 54f
5:42 8 18 mph 992.4mb 37f 53f
5:36 7 17 mph 992.6mb 37f 54f
5:30 9 28 mph 992.9mb 37f 54f
5:24 15 25 mph 993mb 37f 55f
5:18 13 20 mph 993.1mb 37f 55f
5:12 13 20 mph 993.3mb 37f 55f
5:06 13 17 mph 993.6mb 37f 56f
5:00 11 16 mph 993.7mb 37f 56f
4:54 10 15 mph 993.8mb 37f 55f
4:48 9 15 mph 994mb 37f 55f
4:42 9 17 mph 994.1mb 37f 54f
4:36 11 18 mph 994.3mb 37f 54f
4:30 5 11 mph 994.4mb 37f 52f
4:24 2 9 mph 994.6mb 37f 51f
4:18 3 9 mph 994.6mb 37f 50f
4:12 5 6 mph 994.8mb 37f 47f
4:06 6 11 mph 994.9mb 37f 46f
4:00 8 13 mph 994.9mb 37f 46f
3:54 7 8 mph 995mb 37f 45f
3:48 5 14 mph 995mb 37f 46f
3:42 6 11 mph 994.9mb 37f 47f
3:36 3 9 mph 995mb 37f 48f
3:30 2 10 mph 995.1mb 37f 49f
3:24 5 9 mph 995.3mb 37f 51f
3:18 2 6 mph 995.6mb 37f 50f
3:12 5 9 mph 995.8mb 37f 50f
3:06 7 10 mph 995.9mb 37f 49f
3:00 3 6 mph 996mb 37f 46f
2:54 2 6 mph 996.1mb 37f 47f
2:48 5 7 mph 996.1mb 37f 48f
2:42 7 14 mph 996.2mb 37f 48f
2:36 7 10 mph 996.2mb 37f 49f
2:30 7 14 mph 996.3mb 37f 51f
2:24 9 23 mph 996.3mb 37f 53f
2:18 15 24 mph 996.6mb 37f 54f
2:12 8 18 mph 996.6mb 37f 53f
2:06 10 22 mph 996.6mb 37f 53f
2:00 17 33 mph 996.6mb 37f 53f
1:54 20 25 mph 996.8mb 37f 53f
1:48 20 32 mph 996.9mb 37f 53f
1:42 13 20 mph 996.9mb 37f 53f
1:36 17 28 mph 997mb 37f 53f
1:30 18 31 mph 997.1mb 37f 53f
1:24 13 26 mph 997.2mb 37f 53f
1:18 15 31 mph 997.2mb 37f 53f
1:12 11 20 mph 997.3mb 37f 52f
1:06 14 26 mph 997.3mb 37f 51f
1:00 7 9 mph 997.5mb 37f 49f
12:54 8 24 mph 997.7mb 37f 51f
12:48 14 25 mph 997.8mb 37f 53f
12:42 14 20 mph 997.7mb 37f 53f
12:36 14 26 mph 997.7mb 37f 52f
12:30 18 32 mph 997.9mb 37f 53f
12:24 16 24 mph 998.2mb 37f 52f
12:18 14 26 mph 998.5mb 37f 52f
12:12 23 37 mph 998.6mb 37f 53f
12:06 22 29 mph 998.6mb 37f 53f
12:00 18 33 mph 998.8mb 37f 53f
mar. 01/17 11:54 25 32 mph 998.8mb 37f 53f
11:48 22 38 mph 998.9mb 37f 53f
11:42 20 33 mph 999.1mb 37f 53f
11:36 22 39 mph 999.2mb 37f 53f
11:30 25 34 mph 999.2mb 37f 53f
11:24 18 28 mph 999.3mb 37f 52f
11:18 28 38 mph 999.4mb 37f 53f
11:12 21 31 mph 999.6mb 37f 53f
11:06 16 28 mph 999.6mb 37f 52f
11:00 16 26 mph 999.6mb 37f 52f
10:54 20 33 mph 999.6mb 37f 52f
10:48 17 44 mph 999.7mb 37f 52f
10:42 20 28 mph 999.8mb 37f 52f
10:36 20 29 mph 999.9mb 37f 52f
10:30 24 36 mph 999.9mb 37f 53f
10:24 22 30 mph 999.9mb 37f 52f
10:18 17 34 mph 999.8mb 37f 52f
10:12 15 22 mph 999.7mb 37f 52f
10:00 21 37 mph 999.5mb 37f -
9:54 17 29 mph 999.5mb 37f 53f
9:48 25 37 mph 999.6mb 37f 53f
9:42 16 33 mph 999.6mb 37f 53f
9:36 15 37 mph 999.5mb 37f 53f
9:30 15 32 mph 999.6mb 37f 53f
9:24 16 34 mph 999.5mb 37f 53f
9:18 11 28 mph 999.6mb 37f 53f
9:12 14 31 mph 999.6mb 37f 53f
9:06 15 23 mph 999.7mb 37f 53f
9:00 14 24 mph 999.8mb 37f 53f
8:54 13 23 mph 999.7mb 37f 53f
8:48 18 30 mph 999.9mb 37f 54f
8:42 8 30 mph 999.9mb 37f 53f
8:36 5 11 mph 999.9mb 37f 48f
8:30 7 11 mph 999.9mb 37f 45f
8:24 5 8 mph 999.6mb 37f 45f
8:18 8 15 mph 999.8mb 37f 44f
8:12 5 20 mph 999.6mb 37f 45f
8:06 7 15 mph 999.4mb 37f 44f
8:00 3 7 mph 999.6mb 37f 44f
7:54 10 17 mph 999.6mb 37f 44f
7:48 6 11 mph 999.2mb 37f 43f
7:42 5 14 mph 999.4mb 37f 43f
7:36 7 11 mph 999.2mb 37f 43f
7:30 6 13 mph 999.3mb 37f 43f
7:24 5 11 mph 999.3mb 37f 43f
7:18 6 16 mph 999.3mb 37f 43f
7:12 6 9 mph 999.2mb 37f 43f
7:06 5 15 mph 999.3mb 37f 42f
7:00 7 18 mph 999.3mb 37f 42f
6:54 3 13 mph 999.2mb 37f 43f
6:48 5 11 mph 999.3mb 37f 42f
6:42 5 11 mph 999.4mb 37f 42f
6:36 3 11 mph 999.4mb 37f 42f
6:30 5 11 mph 999.4mb 36f 42f
6:24 6 16 mph 999.4mb 37f 42f
6:18 7 13 mph 999.4mb 37f 42f
6:12 6 18 mph 999.6mb 37f 42f
6:06 5 18 mph 999.7mb 37f 42f
6:00 5 14 mph 999.8mb 37f 42f
5:54 6 13 mph 999.9mb 37f 41f
5:48 3 10 mph 999.9mb 36f 41f
5:42 5 10 mph 999.9mb 36f 41f